Back to catalog

STARLINK-36701

AliveCommunicationsSSO
NORAD 67658·PAYLOAD·🇺🇸 United States

Launched Feb 2, 2026 from Vandenberg Space Force Base

Loading…

Next Passes (next 24 hours)

TLE

FreshSource: CelesTrak SupGP

Epoch: Sep 15, 2026, 03:35 UTC

1 67658C 26022L   26258.14979167 -.00038660  00000+0 -12002-2 0  2580
2 67658  97.2839 289.7653 0001164  91.7861 340.3639 15.33457610    10

Track STARLINK-36701 in real time with AllMySat

Download on the App Store